Hourly Data Report for October 09, 2014

All times are specified in Local Standard Time (LST). Add 1 hour to adjust for Daylight Saving Time where and when it is observed.

ST LEONARD CS
NEW BRUNSWICK

47°09'28.050" N
67°49'55.014" W
245.00 m
810I001
71019
WIY

Download Data

Hourly Data (October 2014)
Hourly Data Report for October 9, 2014
Temp Definition
°C
Dew Point Temp Definition
°C
Rel Hum Definition
%
Wind Dir Definition
10's deg

Wind Spd Definition
km/h
Visibility Definition
km
Stn Press Definition
kPa
Hmdx Definition


Wind Chill Definition


Weather Definition


TIME
00:00 9.3 7.1 86 20 3   97.41     LegendNANA
01:00 8.9 6.6 86 21 3   97.43     LegendNANA
02:00 8.0 5.9 87 20 3   97.46     LegendNANA
03:00 6.8 5.0 88 21 3   97.42     LegendNANA
04:00 6.0 4.7 92 18 3   97.49     LegendNANA
05:00 5.1 4.1 93 18 3   97.49     LegendNANA
06:00 5.5 4.1 91 20 2   97.52     LegendNANA
07:00 4.7 3.5 92 20 3   97.59     LegendNANA
08:00 6.4 4.1 86 18 5   97.64     LegendNANA
09:00
10:00 8.1 3.0 70 25 7   97.66     LegendNANA
11:00 8.5 2.4 66 25 7   97.69     LegendNANA
12:00 9.0 1.7 60 24 6   97.70     LegendNANA
13:00 9.4 1.4 57 23 8   97.69     LegendNANA
14:00 9.5 -0.8 48 25 5   97.69     LegendNANA
15:00 9.6 -0.4 49 27 3   97.72     LegendNANA
16:00 9.1 -0.8 50 25 4   97.73     LegendNANA
17:00 8.2 0.2 57 21 2   97.70     LegendNANA
18:00 7.3 1.0 64 17 2   97.61     LegendNANA
19:00 6.7 2.8 76 25 10   97.70     LegendNANA
20:00 5.2 3.6 90 23 5   97.75     LegendNANA
21:00 4.7 3.1 89 23 5   97.75     LegendNANA
22:00 3.9 2.7 92 22 4   97.76     LegendNANA
23:00 3.4 2.5 94 20 3   97.69     LegendNANA

Notes on Data Quality.

Legend

  • E = Estimated
  • M = Missing
  • NA = Not Available
  • ‡ = Partner data that is not subject to review by the National Climate Archives
Date modified: